STARLINK-1587, 46157

Orbit data source: Space-Track

STARLINK-1587, 46157 is a payload satellite owned by SpaceX/Seattle (US) in LEO that was launched on Tue, 18 Aug 2020 UTC via an FALCON 9 launch vehicle from the Air Force Eastern Test Range (AFETR). Payload-class satellites include a variety of spacecraft equipped with specific instruments for various scientific and technological missions. These include communications satellites like Starlink; space stations such as the ISS; scientific satellites like the Hubble; Earth observation satellites from companies like Planet Labs, Umbra, and HawkEye 360; GPS; miniature CubeSats for education and research; and military/defense satellites.

Loading next visibility...
Identifier
46157, 2020-057AS
Orbit
LEO
Country
Flag of USUS
Related business
Manufacturer
SpaceX/Seattle
Mission
Operational Commercial Communications
Bus & Motor
STARLINK, Unknown motor
Mass
260 kg wet, ~248 kg dry
Launch date (UTC)
2020-08-18 (5 years ago)
Launch vehicle
FALCON 9
Launch site
Air Force Eastern Test Range (AFETR)
Object type
Payload
Rocket body
Debris
Shape & HBR
Box + 1 Pan, 4.4 m
Radar Cross Section
13.562 m², Large (>1 m²)

Expand to show TLE details & history
Last TLE update: 13 hours ago

TLE from 13 hours ago
0 STARLINK-1587
1 46157U 20057AS  25258.25003472  .00015775  00000-0  92036-3 0  9990
2 46157  53.0540 344.1067 0001044  94.8447  14.2709 15.12117330  5846
Epoch: 2025-09-15T06:00Z
TLE epoch observation values (Epoch: 2025-09-15T06:00:02.999Z)
Latitude
49.18321°
Longitude
19.64041°
Altitude
534.675 km
Speed
7.602 km/s
True Right ascension
06h 56m 26s
True Declination
49° 00' 27"
Sunlit
Object was in daylight at epoch
Visualization orbit readout
Latitude
Unknown
Longitude
Unknown
Altitude
Unknown
Speed
Unknown
Apparent Right ascension
Unknown
Apparent Declination
Unknown
Sunlit
N/A
Visualization observer readout
Local Sidereal Time
11:53:22
Azimuth
Unknown
Elevation
Unknown
Doppler factor
Unknown
Orbital elements
Apogee altitude
530.737 km
Perigee altitude
529.294 km
Semi-major axis
6,908.152 km
Eccentricity
0.0001
Inclination
53.054°
RAAN
344.1067°
Arg. of periapsis
94.8447°
True anomaly
14.27385°
Mean anomaly
14.2709°
Eccentric anomaly
14.27237°
Mean motion
3.78007 °/min
Orbital period
95.24 mins
BSTAR
0.00092036
Loading maneuver chart data...
Computing Atmospheric mass density...

Documentation

Showing up to 5 results
|